Location: Bodest
(46.3000°N, 22.5667°E)
Time: 22:08:01
(UTC+00:00)

ARGOS - Pass Details

Date: 16 October 2021
Orbit: 820 x 835 km, 98.4° (Epoch: 29 November)

Event Time Altitude Azimuth Distance (km) Brightness Sun altitude
Rises 17:27:49 0° 183° (S) 3,349 6.3 -19.1°
Reaches altitude 10° 17:30:15 10° 189° (S) 2,423 5.6 -19.5°
Maximum altitude 17:35:23 45° 262° (W) 1,124 4.3 -20.4°
Drops below altitude 10° 17:40:34 10° 334° (NNW) 2,449 6.0 -21.3°
Sets 17:43:03 0° 341° (NNW) 3,390 6.7 -21.7°
